Farmington, NM

2:13 PM MDT on July 25, 2017 (GMT -0600)
Four Corners Regional

Weather History for KFMN - October, 2013

Change the Weather History Date:

Friday, October 18, 2013

  Actual Average Record
Temperature  
Mean Temperature 44 °F -  
Max Temperature 59 °F 65 °F 79 °F (2003)
Min Temperature 28 °F 35 °F 23 °F (1984)
Degree Days  
Heating Degree Days 22    
Moisture  
Dew Point 15 °F    
Average Humidity 33    
Maximum Humidity 66    
Minimum Humidity 5    
Precipitation  
Precipitation 0.00 in - - ()
Sea Level Pressure  
Sea Level Pressure 30.08 in    
Wind  
Wind Speed 9 mph (WNW)    
Max Wind Speed 23 mph    
Max Gust Speed 36 mph    
Visibility 10 miles    
Events      
Averages and records for this station are not official NWS values.
T = Trace of Precipitation, MM = Missing Value Source: NWS Daily Summary

Daily Weather History Graph

Daily Weather History Graph

Search for Another Location

Airport or City:

Trip Planner

Search our weather history database for the weather conditions in past years. The results will help you decide how hot, cold, wet, or windy it might be!

Date:

Astronomy

Oct. 18, 2013 Rise Set
Actual Time 7:23 AM MDT 6:32 PM MDT
Civil Twilight 6:57 AM MDT 6:58 PM MDT
Nautical Twilight 6:27 AM MDT 7:28 PM MDT
Astronomical Twilight 5:57 AM MDT 7:58 PM MDT
Moon 6:24 PM MDT (10/18) 7:02 AM MDT (10/18)
Length of Visible Light 12h 01m
Length of Day
11h 08m
Full, 100% of the Moon is Illuminated
Oct 18
Full
Oct 18
Full
Oct 26
Last Quarter
Nov 3
New
Nov 9
First Quarter

Hourly Weather History & Observations

Time (MDT) Temp. Windchill Dew Point Humidity Pressure Visibility Wind Dir Wind Speed Gust Speed Precip Events Conditions
12:53 AM 36.0 °F 31.1 °F 19.0 °F 50% 30.00 in 10.0 mi NNE 5.8 mph - N/A   Clear
1:53 AM 33.1 °F 30.0 °F 19.0 °F 56% 30.00 in 10.0 mi NE 3.5 mph - N/A   Clear
2:53 AM 32.0 °F 26.4 °F 19.0 °F 59% 30.01 in 10.0 mi NNE 5.8 mph - N/A   Clear
3:53 AM 30.9 °F - 19.0 °F 61% 30.01 in 10.0 mi Calm Calm - N/A   Clear
4:53 AM 32.0 °F - 19.0 °F 59% 30.02 in 10.0 mi Calm Calm - N/A   Clear
5:53 AM 30.0 °F 25.2 °F 19.9 °F 66% 30.04 in 10.0 mi WSW 4.6 mph - N/A   Clear
6:53 AM 32.0 °F 26.4 °F 19.0 °F 59% 30.06 in 10.0 mi WSW 5.8 mph - N/A   Clear
7:53 AM 33.1 °F 28.7 °F 19.0 °F 56% 30.08 in 10.0 mi SW 4.6 mph - N/A   Clear
8:53 AM 41.0 °F 33.1 °F 21.0 °F 45% 30.09 in 10.0 mi West 15.0 mph - N/A   Clear
9:53 AM 48.0 °F - 21.9 °F 36% 30.11 in 10.0 mi West 17.3 mph 21.9 mph N/A   Clear
10:53 AM 51.1 °F - 21.9 °F 32% 30.10 in 10.0 mi West 18.4 mph - N/A   Clear
11:53 AM 54.0 °F - 17.1 °F 23% 30.09 in 10.0 mi WNW 18.4 mph 29.9 mph N/A   Clear
12:53 PM 55.9 °F - 14.0 °F 19% 30.09 in 10.0 mi West 21.9 mph 26.5 mph N/A   Clear
1:53 PM 57.0 °F - 10.9 °F 16% 30.07 in 10.0 mi West 21.9 mph 35.7 mph N/A   Clear
2:53 PM 57.9 °F - 10.0 °F 15% 30.07 in 10.0 mi West 23.0 mph 29.9 mph N/A   Clear
3:53 PM 57.9 °F - 7.0 °F 13% 30.08 in 10.0 mi WNW 15.0 mph 31.1 mph N/A   Clear
4:53 PM 57.9 °F - 7.0 °F 13% 30.07 in 10.0 mi West 17.3 mph - N/A   Clear
5:53 PM 55.9 °F - 5.0 °F 13% 30.10 in 10.0 mi WNW 20.7 mph 26.5 mph N/A   Clear
6:53 PM 51.1 °F - 8.1 °F 18% 30.13 in 10.0 mi West 11.5 mph - N/A   Clear
7:53 PM 48.9 °F - 12.0 °F 23% 30.16 in 10.0 mi WNW 10.4 mph - N/A   Clear
8:53 PM 44.1 °F 39.5 °F 15.1 °F 31% 30.17 in 10.0 mi WSW 8.1 mph - N/A   Clear
9:53 PM 46.0 °F 41.9 °F 15.1 °F 29% 30.16 in 10.0 mi WNW 8.1 mph - N/A   Clear
10:53 PM 42.1 °F - 16.0 °F 35% 30.16 in 10.0 mi Calm Calm - N/A   Clear
11:53 PM 44.1 °F 40.1 °F 14.0 °F 30% 30.15 in 10.0 mi West 6.9 mph - N/A   Clear